ISS DEB (44789 NORAD) Tracking and Keplerian Element Data

This shows tracking and keplerian element data for the satellite.

Feedback or suggestion? Click here.




ElementValue
Catalog44789
NameISS DEB
Epoch Orbit8972
Epoch Day162.58449091
Epoch Year2021
RAAN314.3411
Inclination51.6111
Eccentricity0.00127
Argument of Perigee300.8738
Mean Anonmoly59.1038
Mean Motion16.37153671
Decay Rate0.09083592
L11 44789U 98067QU 21162.58449091 .09083592 12427-4 88933-3 0 9994
L22 44789 51.6111 314.3411 0012700 300.8738 59.1038 16.37153671 89727



Live tracking and technical data element details for ISS DEB (NORAD 44789). ISS DEB can be tracked NOW for your location showing map with azimuth and elevation plus other details from your city location.







IsCatalogInMostPopularTable: catalog: 44789, numindb: 26522
Update: records affected: 1



GetName: 44789 ISS DEB

Hit Count: updated at: Thu, 21 May 2026 10:43:28 GMT